Location: Woodhurst
(52.3667°N, 0.0667°W)
Time: 07:22:08
(UTC+00:00)

Nadezhda 3 Rocket - Pass Details

Date: 19 May 2025
Orbit: 957 x 997 km, 82.9° (Epoch: 19 June)

Event Time Altitude Azimuth Distance (km) Brightness Sun altitude
Exits shadow 23:06:39 17° 207° (SSW) 2,234 5.4 -16.8°
Maximum altitude 23:11:29 62° 285° (WNW) 1,090 4.3 -17.0°
Drops below altitude 10° 23:17:42 10° 6° (N) 2,740 7.5 -17.1°
Sets 23:20:17 0° 10° (N) 3,698 8.4 -17.2°
